Flag for Lithuania Weather past 2 weeks in Kaunas, Lithuania

Now
27 °F

Clear.


Feels Like: 17 °F
Forecast: 24 / 37 °F
Wind: 9 mph from East

Location: Kaunas

Current Time: Oct 23, 2014 at 7:53:07 PM

Latest Report: Oct 23, 2014 at 7:20 PM


Visibility: 10 mi

Pressure: 30.39 "Hg

Humidity: 54%

Dew point: 12 °F

Location of KaunasLocation

Historic Weather in Kaunas — Graph

°F

Kaunas temperature yesterday

Maximum temperature yesterday: 45 °F (at 12:20 AM)
Minimum temperature yesterday: 32 °F (at 9:50 PM)
Average temperature yesterday: 37 °F

Past Weeks' High & Low Weather Summary

 TemperatureHumidityPressure
High70 °F (Oct 10, 2:50 PM)100% (Oct 15, 4:20 AM)30.39 "Hg (Oct 15, 4:20 AM)
Low25 °F (Oct 23, 4:50 AM)35% (Oct 23, 3:50 PM)29.50 "Hg (Oct 20, 5:50 PM)
Average49 °F81%29.89 "Hg
* Reported Oct 8 6:20 PM — Oct 23 6:50 PM, Kaunas, Weather by CustomWeather, © 2014

Note: Actual official high and low records may vary slightly from our data, if they occured in-between our weather recording intervals... More about our weather records

Advertising

Kaunas weather history for previous 24 hours

 ConditionsComfort  
Time TempWeatherWind HumidityBarometerVisibility
6:50 PM
Oct 23
27 °FSunny.8 mph50%30.39 "Hg10 mi
6:20 PM30 °FSunny.10 mph43%30.39 "Hg10 mi
5:50 PM30 °FSunny.10 mph40%30.36 "Hg10 mi
5:20 PM34 °FSunny.14 mph35%30.36 "Hg10 mi
4:50 PM34 °FSunny.12 mph35%30.36 "Hg10 mi
4:20 PM34 °FSunny.15 mph38%30.36 "Hg10 mi
3:50 PM36 °FPassing clouds.13 mph35%30.36 "HgN/A
3:20 PM36 °FPassing clouds.16 mph38%30.33 "HgN/A
2:50 PM36 °FPassing clouds.13 mph38%30.33 "HgN/A
2:20 PM36 °FPassing clouds.14 mph41%30.33 "HgN/A
1:50 PM34 °FSunny.14 mph44%30.33 "Hg10 mi
1:20 PM34 °FSunny.16 mph44%30.33 "Hg10 mi
12:50 PM32 °FPassing clouds.15 mph51%30.33 "HgN/A
12:20 PM30 °FSunny.17 mph51%30.33 "Hg10 mi
11:50 AM30 °FSunny.18 mph51%30.30 "Hg10 mi
11:20 AM30 °FPassing clouds.16 mph59%30.30 "HgN/A
10:50 AM28 °FPassing clouds.16 mph64%30.30 "HgN/A
10:20 AM27 °FPassing clouds.16 mph69%30.30 "HgN/A
9:50 AM27 °FSunny.14 mph69%30.27 "Hg10 mi
9:20 AM25 °FSunny.13 mph74%30.27 "Hg10 mi
8:50 AM25 °FClear.14 mph74%30.27 "Hg10 mi
8:20 AM25 °FClear.12 mph74%30.24 "Hg10 mi
7:50 AM25 °FClear.13 mph74%30.21 "Hg10 mi
7:20 AM25 °FClear.12 mph74%30.21 "Hg10 mi
6:50 AM25 °FClear.12 mph74%30.21 "Hg10 mi
6:20 AM25 °FClear.12 mph80%30.18 "Hg10 mi
5:50 AM25 °FClear.12 mph80%30.18 "Hg10 mi
5:20 AM25 °FClear.12 mph80%30.18 "Hg10 mi
4:50 AM25 °FClear.12 mph80%30.15 "Hg10 mi
4:20 AM27 °FClear.10 mph74%30.15 "Hg10 mi
3:50 AM27 °FClear.10 mph74%30.15 "Hg10 mi
3:20 AM27 °FChilly.12 mph74%30.15 "HgN/A
2:50 AM27 °FChilly.10 mph74%30.12 "HgN/A
2:20 AM28 °FChilly.10 mph69%30.12 "HgN/A
1:50 AM28 °FChilly.10 mph69%30.12 "HgN/A
1:20 AM28 °FChilly.13 mph69%30.12 "HgN/A
12:50 AM30 °FOvercast.15 mph64%30.09 "HgN/A
12:20 AM30 °FOvercast.15 mph64%30.09 "HgN/A
11:50 PM
Oct 22
32 °FOvercast.16 mph60%30.09 "HgN/A
11:20 PM32 °FOvercast.8 mph69%30.07 "HgN/A
10:50 PM32 °FOvercast.13 mph64%30.07 "HgN/A
10:20 PM32 °FOvercast.17 mph64%30.04 "HgN/A
9:50 PM32 °FOvercast.17 mph64%30.04 "HgN/A
9:20 PM34 °FOvercast.15 mph65%30.01 "HgN/A
8:50 PM34 °FOvercast.12 mph70%30.01 "HgN/A
8:20 PM34 °FOvercast.14 mph70%30.01 "HgN/A
7:50 PM34 °FOvercast.13 mph70%29.98 "HgN/A
7:20 PM34 °FOvercast.14 mph70%29.98 "HgN/A
Weather by CustomWeather, © 2014

See weather overviewHow to use our weather pages